Location: Newark
(41.8083°N, 72.2500°W)
Time: 14:23:27
(UTC+00:00)

deb Explorer IX - Pass Details

Date: 30 November 2021
Orbit: 544 x 1082 km, 38.8° (Epoch: 19 January)

Event Time Altitude Azimuth Distance (km) Brightness Sun altitude
Rises 20:18:55 0° 273° (W) 2,697 ? 8.5°
Reaches altitude 10° 20:21:14 10° 264° (W) 1,812 ? 8.1°
Maximum altitude 20:25:01 36° 197° (SSW) 893 ? 7.6°
Drops below altitude 10° 20:29:03 10° 130° (SE) 1,933 ? 7.0°
Sets 20:31:36 0° 122° (ESE) 2,907 ? 6.6°
